Location: Im Fang
(46.6019°N, 7.2397°E)
Time: 06:50:40
(UTC+00:00)

Cosmos 1023 Rocket - Pass Details

Date: 08 December 2019
Orbit: 736 x 773 km, 74.1° (Epoch: 23 January)

Event Time Altitude Azimuth Distance (km) Brightness Sun altitude
Exits shadow 04:44:23 48° 321° (NW) 988 4.7 -22.7°
Maximum altitude 04:45:47 73° 251° (WSW) 799 4.3 -22.4°
Drops below altitude 10° 04:50:59 10° 168° (SSE) 2,299 7.2 -21.6°
Sets 04:53:21 0° 166° (SSE) 3,226 8.1 -21.2°
